Weather History for Tyler, TX

Change the Weather History Date:

Saturday, May 5, 2012

  Actual Average Record
Temperature  
Mean Temperature 79 °F 70 °F  
Max Temperature 91 °F 80 °F 93 °F (1906)
Min Temperature 67 °F 60 °F 41 °F (2013)
Degree Days  
Heating Degree Days 0 1  
Month to date heating degree days 0 5  
Since 1 July heating degree days 1659 2267  
Cooling Degree Days 14 6  
Month to date cooling degree days 68 27  
Year to date cooling degree days 364 139  
Growing Degree Days 30 (Base 50)    
Moisture  
Dew Point 64 °F    
Average Humidity 59    
Maximum Humidity 79    
Minimum Humidity 39    
Precipitation  
Precipitation T in 0.16 in 3.00 in (1935)
Month to date precipitation T 0.76  
Year to date precipitation 14.37 14.92  
Snow  
Snow 0.00 in - - ()
Month to date snowfall 0.0  
Since 1 July snowfall 0.0  
Snow Depth 0.00 in    
Sea Level Pressure  
Sea Level Pressure 29.87 in    
Wind  
Wind Speed 9 mph (South)    
Max Wind Speed 17 mph    
Max Gust Speed 23 mph    
Visibility 9 miles    
Events Thunderstorm    
T = Trace of Precipitation, MM = Missing Value Source: NWS Daily Summary

Daily Weather History Graph

Daily Weather History Graph

Search for Another Location

Airport:

Trip Planner

Search our weather history database for the weather conditions in past years. The results will help you decide how hot, cold, wet, or windy it might be!

Date:

Astronomy

May. 05, 2012 Rise Set
Actual Time 6:30 AM CDT 8:05 PM CDT
Civil Twilight 6:04 AM CDT 8:32 PM CDT
Nautical Twilight 5:32 AM CDT 9:04 PM CDT
Astronomical Twilight 4:59 AM CDT 9:37 PM CDT
Moon 7:58 PM CDT (5/5) 5:53 AM CDT (5/5)
Length of Visible Light 14h 27m
Length of Day
13h 35m
Full, 100% of the Moon is Illuminated
May 5
Full
May 5
Full
May 12
Last Quarter
May 20
New
May 28
First Quarter

Hourly Weather History & Observations

Time (CDT) Temp. Heat Index Dew Point Humidity Pressure Visibility Wind Dir Wind Speed Gust Speed Precip Events Conditions
12:53 AM 79.0 °F - 57.0 °F 47% 29.86 in 10.0 mi SSW 5.8 mph 19.6 mph 0.00 in   Partly Cloudy
1:53 AM 75.0 °F - 57.9 °F 55% 29.83 in 10.0 mi South 26.5 mph 32.2 mph N/A   Scattered Clouds
2:53 AM 79.0 °F - 52.0 °F 39% 29.80 in 10.0 mi SW 8.1 mph - 0.00 in   Clear
3:53 AM 75.0 °F - 54.0 °F 48% 29.79 in 10.0 mi ENE 10.4 mph - N/A   Clear
4:53 AM 71.1 °F - 57.9 °F 63% 29.82 in 10.0 mi Calm Calm - N/A Thunderstorm Clear
5:21 AM 69.8 °F - 57.2 °F 64% 29.87 in 10.0 mi SSW 3.5 mph - N/A   Clear
5:53 AM 69.1 °F - 57.9 °F 68% 29.87 in 10.0 mi SSW 4.6 mph - N/A   Clear
6:53 AM 71.1 °F - 57.9 °F 63% 29.89 in 10.0 mi Calm Calm - N/A   Clear
7:20 AM 73.4 °F - 62.6 °F 69% 29.93 in 10.0 mi SW 11.5 mph - N/A   Mostly Cloudy
7:53 AM 73.0 °F - 64.0 °F 73% 29.90 in 10.0 mi SSW 5.8 mph - 0.00 in   Overcast
8:53 AM 73.0 °F - 66.0 °F 79% 29.95 in 7.0 mi South 3.5 mph - N/A   Overcast
9:53 AM 75.9 °F - 66.0 °F 71% 29.95 in 8.0 mi South 5.8 mph - N/A   Overcast
10:53 AM 79.0 °F - 66.9 °F 66% 29.94 in 7.0 mi SSE 10.4 mph - N/A   Mostly Cloudy
11:01 AM 80.6 °F 82.7 °F 66.2 °F 61% 29.96 in 8.0 mi SSW 11.5 mph - N/A   Scattered Clouds
11:53 AM 81.0 °F 83.3 °F 66.9 °F 62% 29.92 in 8.0 mi South 11.5 mph - N/A   Partly Cloudy
12:53 PM 84.9 °F 87.1 °F 66.0 °F 53% 29.90 in 9.0 mi SSE 13.8 mph - N/A   Clear
1:53 PM 88.0 °F 90.3 °F 66.0 °F 48% 29.89 in 9.0 mi South 12.7 mph 17.3 mph N/A   Clear
2:53 PM 90.0 °F 92.4 °F 66.0 °F 45% 29.87 in 10.0 mi Variable 6.9 mph - N/A   Clear
3:53 PM 89.6 °F 92.2 °F 66.2 °F 46% 29.87 in 9.0 mi SE 9.2 mph - N/A   Clear
4:53 PM 90.0 °F 92.4 °F 66.0 °F 45% 29.82 in 9.0 mi SSE 12.7 mph - N/A   Clear
5:53 PM 90.0 °F 92.8 °F 66.9 °F 46% 29.82 in 9.0 mi SE 11.5 mph - N/A   Clear
6:53 PM 87.1 °F 90.6 °F 68.0 °F 53% 29.82 in 9.0 mi SE 8.1 mph - N/A   Clear
7:53 PM 84.0 °F 87.0 °F 68.0 °F 58% 29.82 in 8.0 mi SE 11.5 mph - N/A   Clear
8:53 PM 82.0 °F 84.9 °F 68.0 °F 62% 29.83 in 9.0 mi SE 8.1 mph - N/A   Clear
9:53 PM 80.1 °F 82.7 °F 68.0 °F 67% 29.86 in 9.0 mi SSE 9.2 mph - N/A   Clear
10:53 PM 79.0 °F - 68.0 °F 69% 29.86 in 9.0 mi SSE 10.4 mph - N/A   Clear
11:53 PM 78.1 °F - 69.1 °F 74% 29.87 in 8.0 mi South 11.5 mph - N/A   Clear